Wind_Speed
17 17 16 15 14 13 14 16 17 19 21 24 26 25 21 14 10 10 11 10 10 10 10 11 12 14 16 18 19 19 17 16 15 14 12 11 10 9 8 8 7 6 6 7 9 11 12 14 17 21 25 27 26 23 19 15 13 13 13 12 12 11 11 11 12 11 11 10 10
17 17 16 15 14 13 13 14 15 17 20 22 25 27 26 22 17 13 12 11 11 11 12 12 13 14 17 19 21 21 20 18 16 14 12 10 8 6 6 6 6 5 6 8 11 13 14 15 17 21 24 25 23 20 16 13 11 11 11 11 10 10 9 10 10 10 10 10 10
17 16 16 15 14 14 14 14 15 16 17 18 21 25 27 26 24 21 17 15 15 16 16 16 16 16 17 18 20 21 21 19 17 15 12 10 7 6 5 5 5 6 7 10 11 12 13 14 16 19 21 20 17 15 13 12 10 10 10 10 11 10 10 10 11 11 10 10 10
17 16 16 15 14 13 14 16 17 16 15 16 16 20 23 26 26 25 23 21 19 18 17 16 16 16 17 17 18 19 19 18 16 14 12 9 7 6 6 6 7 7 8 9 11 11 10 11 13 16 17 16 14 12 13 14 14 13 13 13 13 13 13 13 13 13 13 12 12
18 16 16 16 15 15 15 16 17 16 15 15 15 16 19 22 24 25 25 24 20 17 16 15 15 16 17 18 18 18 17 16 14 13 10 9 7 7 7 8 8 8 8 10 12 12 11 11 12 14 15 14 13 13 15 16 16 16 15 15 15 15 15 14 15 15 15 14 14
18 17 17 17 17 16 15 15 16 15 15 15 16 16 17 19 21 23 24 25 22 20 18 16 15 16 18 19 19 17 15 14 12 11 9 8 8 8 8 8 8 8 9 10 12 12 12 13 14 15 16 15 14 15 16 16 17 17 16 16 15 15 15 15 15 16 16 15 15
17 18 18 19 20 19 16 14 13 13 13 15 16 17 18 18 19 22 24 26 25 25 23 21 19 18 18 18 18 16 14 11 10 9 9 9 9 8 7 7 7 8 10 12 13 13 13 14 15 16 17 17 17 16 16 16 16 16 16 16 16 16 16 16 16 16 16 15 15
17 17 18 19 20 20 18 15 13 11 10 12 15 17 18 18 19 21 23 26 27 28 28 27 25 23 21 19 17 15 12 10 9 9 9 9 9 8 7 5 5 6 8 11 13 14 15 15 15 16 17 19 18 17 16 17 16 17 17 17 17 17 17 16 16 16 15 14 14
15 15 15 15 16 17 17 16 14 12 10 10 13 16 18 19 19 20 22 24 25 26 27 27 27 25 23 21 18 16 13 11 9 8 9 10 11 10 8 7 6 6 8 10 12 14 15 15 16 17 19 19 18 17 17 18 17 17 17 17 17 16 16 15 14 13 13 12 11
14 13 12 11 11 11 12 13 13 12 11 11 12 15 18 19 19 19 21 22 23 24 24 24 23 22 20 18 17 16 15 15 13 12 10 11 11 12 11 11 10 9 10 11 13 15 16 17 17 18 19 20 18 17 17 17 16 16 15 15 14 13 12 12 11 10 10 9 9
14 12 11 9 9 9 10 12 13 14 15 16 16 16 17 17 17 18 18 20 22 23 24 22 20 18 16 14 14 13 13 14 15 16 17 17 16 16 15 15 14 14 14 14 16 17 18 18 18 19 19 19 18 17 16 15 14 13 12 12 11 10 9 9 8 8 7 8 8
14 12 11 11 11 12 14 16 17 18 19 21 20 19 17 17 16 17 17 19 22 23 22 20 18 17 16 14 13 13 13 14 16 18 20 22 22 22 21 20 19 18 18 18 19 20 20 20 19 19 19 19 18 17 15 13 12 10 9 8 7 7 7 7 7 6 7 8 8
14 14 13 14 15 17 20 21 21 21 21 22 22 21 19 18 18 18 19 21 22 22 21 19 18 17 17 17 16 15 14 15 16 18 21 23 24 24 24 23 23 22 21 21 22 22 22 21 20 19 19 19 17 16 14 13 11 9 7 7 7 7 7 7 7 7 7 8 8
13 14 15 16 17 19 21 22 22 21 20 20 21 21 20 20 20 21 22 23 23 22 22 22 21 20 20 18 16 14 13 14 16 18 21 22 24 24 24 24 23 23 23 23 24 24 23 22 21 20 20 19 17 15 14 13 11 10 9 9 8 8 8 8 8 8 8 8 8
11 13 14 16 17 19 20 21 21 20 19 19 20 20 20 21 21 22 23 23 23 24 24 24 23 22 18 14 11 11 13 16 18 19 21 22 22 23 24 24 23 23 24 24 24 24 24 22 22 21 20 19 17 15 13 12 11 10 10 10 9 9 9 9 9 9 10 10 9
13 14 15 16 16 17 18 19 19 19 19 19 19 20 20 21 21 21 22 22 23 23 23 23 22 19 16 13 13 15 18 20 21 21 21 22 22 22 23 23 23 23 24 24 24 24 24 23 22 21 19 18 16 15 13 11 11 11 11 10 10 10 9 9 9 9 10 11 9
16 16 16 17 17 17 17 17 17 17 18 18 19 19 20 20 21 21 21 21 21 21 21 20 18 17 16 17 18 21 22 23 23 22 22 22 22 22 22 23 23 23 24 24 24 23 22 21 20 19 17 16 15 13 12 11 11 12 12 11 10 9 9 9 8 8 9 9 9
20 20 19 19 18 18 18 17 17 16 17 18 18 19 19 20 20 20 20 19 19 19 19 18 18 18 20 21 23 24 24 24 24 24 23 23 23 23 23 23 23 23 23 22 22 21 20 19 17 16 14 13 12 11 11 11 12 13 12 11 11 10 9 9 8 8 8 8 8
22 22 21 21 20 20 20 19 18 17 17 18 18 19 19 19 19 19 19 18 18 18 19 19 20 21 22 24 25 25 25 25 25 25 25 24 24 23 23 23 22 21 20 19 18 17 16 16 15 13 12 12 11 11 11 12 13 14 13 12 11 10 9 8 7 7 6 6 6
23 22 22 22 22 21 20 20 19 19 18 18 18 19 19 18 18 18 19 19 19 19 20 21 22 23 24 25 26 26 26 26 26 26 25 25 24 23 22 22 20 19 18 17 16 15 15 14 13 12 12 11 11 12 13 14 14 14 12 11 10 9 7 6 5 5 5 5 5
21 22 22 21 21 21 20 20 20 19 19 18 18 18 18 18 18 18 19 19 19 20 21 22 23 24 25 26 26 27 26 26 26 26 25 24 23 22 21 20 19 18 17 17 16 15 15 14 13 12 12 12 13 14 15 15 14 13 11 10 8 7 6 4 4 4 4 4 4
19 19 19 19 20 20 20 19 19 19 19 18 18 18 18 18 18 18 19 19 20 20 21 23 24 25 26 27 27 27 26 26 25 24 23 22 21 20 19 18 18 17 17 17 16 16 15 14 13 12 12 13 13 14 14 13 12 11 9 8 7 6 5 4 3 3 4 4 3
17 18 18 18 18 19 19 19 19 19 18 18 18 18 18 18 18 19 19 20 20 21 22 23 24 25 25 26 26 26 25 25 23 22 21 20 19 18 17 17 17 17 17 17 17 16 15 15 14 13 13 14 14 13 12 10 9 8 7 7 6 6 5 4 3 3 3 3 3
17 17 17 17 17 18 18 19 19 19 19 18 18 18 18 19 19 19 20 20 21 21 22 23 24 24 24 24 24 23 23 23 23 22 21 20 19 18 18 17 17 17 17 17 17 17 17 17 16 16 15 15 14 12 11 9 8 8 7 7 6 5 4 3 3 3 4 4 4
16 16 16 17 17 18 18 18 19 19 19 19 19 19 19 19 19 20 20 20 21 21 22 22 23 23 23 23 23 22 22 22 22 22 22 21 20 20 19 19 18 18 18 18 18 18 18 18 18 17 16 15 14 13 12 11 10 9 8 7 5 4 3 3 3 4 4 5 5
17 16 16 17 17 18 18 18 18 19 19 20 20 20 20 20 20 20 21 20 20 20 21 21 21 22 22 22 22 21 21 21 21 22 22 22 21 21 20 19 19 19 19 19 19 19 18 18 17 16 15 14 12 11 10 10 9 9 8 7 6 5 4 4 4 4 5 5 6
17 17 17 18 18 18 18 18 19 19 20 20 21 21 21 21 21 21 21 20 20 20 20 20 20 20 20 19 19 19 19 19 20 20 21 21 21 20 19 18 18 19 20 19 19 18 17 15 14 13 12 10 9 8 8 8 7 7 7 7 6 6 6 6 6 6 5 6 6
17 17 18 18 18 19 19 19 19 20 20 20 21 21 21 21 21 21 20 20 20 19 19 18 18 17 17 16 16 16 16 16 17 18 19 19 19 18 18 17 18 18 18 17 16 15 14 13 11 10 9 8 7 6 6 5 5 5 6 7 7 7 8 8 7 7 6 6 7
18 19 19 19 19 19 20 20 20 20 20 21 21 21 21 21 20 19 19 18 18 18 17 16 16 16 15 14 14 14 14 14 15 16 17 17 17 17 17 17 17 17 16 15 14 12 11 10 9 8 7 6 5 5 5 5 4 5 5 6 6 7 8 8 7 7 7 6 6
19 20 20 20 20 20 20 20 20 20 20 20 20 20 20 19 18 17 16 16 16 16 16 15 15 15 14 14 14 14 14 14 14 15 16 16 16 16 16 16 16 16 15 14 13 11 10 9 8 7 6 5 4 4 4 4 5 5 5 5 5 6 6 6 6 6 6 6 6
19 20 20 20 20 20 19 19 19 19 19 19 19 18 18 17 16 15 15 15 15 15 15 14 14 14 14 14 14 14 14 14 14 14 15 15 16 16 16 16 15 15 15 14 13 12 10 9 8 7 6 5 4 4 4 4 5 5 5 4 4 4 4 4 4 4 5 5 4
17 18 19 19 19 19 18 18 18 18 17 17 17 16 15 15 14 14 14 14 14 14 14 13 13 13 13 13 13 13 13 12 12 12 13 15 16 16 16 15 15 15 14 14 13 12 11 10 9 8 6 5 4 4 4 4 5 5 4 4 3 2 2 2 2 3 3 3 3
16 17 17 17 17 17 17 16 16 15 15 15 14 14 13 13 13 13 13 13 13 13 13 12 12 12 13 13 13 12 11 11 11 11 12 14 15 15 15 15 14 14 14 14 13 13 12 11 9 8 6 5 4 4 4 4 4 4 4 3 2 2 2 2 2 2 2 2 2
16 16 16 16 15 15 14 14 13 13 12 12 11 11 11 11 11 11 12 12 13 12 12 11 11 12 12 12 12 12 11 10 10 11 12 13 14 14 14 14 14 14 14 13 13 12 11 10 8 7 5 4 3 3 4 4 4 4 3 2 1 1 1 1 2 2 2 2 2
15 16 16 15 15 13 13 12 11 11 10 10 10 9 9 9 10 10 11 12 12 12 11 10 10 11 11 11 11 11 10 10 10 10 11 11 12 13 13 13 14 14 14 13 12 11 10 9 7 5 4 3 3 3 4 4 4 3 3 2 1 1 1 2 2 2 2 2 2
13 14 14 14 13 12 12 11 10 10 10 9 9 9 9 9 9 10 11 12 12 11 11 10 10 10 11 11 11 10 10 10 10 10 10 11 11 11 12 13 13 14 14 13 11 10 9 7 6 5 4 3 3 3 4 4 4 3 2 2 1 1 1 2 2 2 2 2 2
11 12 12 12 11 11 10 10 10 9 9 9 9 9 9 9 9 9 10 11 11 11 10 10 10 10 10 10 10 10 9 9 9 10 10 10 10 11 11 12 12 13 13 13 11 10 9 7 6 5 4 3 2 3 3 3 3 3 2 2 1 1 1 2 2 2 2 3 4
9 10 10 10 10 10 10 9 9 9 9 9 9 9 9 9 9 10 10 11 11 10 10 10 10 10 10 10 10 9 9 8 8 8 9 9 9 10 10 11 12 12 13 13 12 10 9 8 7 5 4 2 2 3 3 3 3 2 2 1 1 2 2 2 2 2 3 4 5
9 9 9 9 9 9 9 9 9 9 9 9 9 9 9 10 10 10 10 10 10 10 10 10 10 10 10 10 9 9 8 7 7 7 8 8 9 9 9 10 11 12 13 13 12 11 10 8 8 6 4 3 3 3 2 2 3 2 2 1 2 2 2 2 2 2 3 5 6
8 8 8 9 9 8 8 8 8 8 8 8 9 9 9 9 10 10 10 10 10 10 10 10 10 10 10 9 9 8 8 7 7 7 7 8 9 9 9 9 10 11 12 12 11 11 10 9 8 7 5 4 4 3 2 2 2 2 2 2 2 2 2 2 2 2 3 4 5
8 8 8 8 8 8 8 8 8 8 8 8 8 8 8 9 9 9 9 9 9 9 9 9 9 10 10 10 9 8 8 7 7 7 8 9 10 11 11 10 10 11 12 12 11 10 10 10 9 7 6 5 4 3 2 2 2 2 2 2 2 2 2 2 2 2 3 3 5
Wind_Direction
201 200 197 194 193 195 199 203 203 204 205 207 206 206 205 198 181 171 170 173 179 187 196 205 210 212 211 206 198 191 187 187 189 190 192 194 199 202 205 206 205 211 227 246 255 259 259 259 259 259 257 254 248 243 237 230 217 207 203 201 201 201 201 200 201 202 205 208 206
199 197 197 195 192 190 192 197 201 206 209 209 206 206 208 210 207 198 191 192 198 206 213 218 220 221 219 213 207 201 198 195 194 194 194 193 195 198 201 202 202 213 238 259 264 265 265 265 264 260 255 249 244 239 235 229 220 214 210 208 206 203 200 198 199 202 207 210 209
201 198 197 196 191 186 186 191 196 199 202 202 202 203 205 209 211 211 208 207 211 216 218 218 218 219 218 214 209 206 203 200 197 193 189 185 183 185 190 195 196 209 234 254 262 265 267 267 263 256 249 243 239 233 223 213 212 213 212 208 205 201 197 193 192 195 199 202 203
210 204 200 198 193 188 188 191 193 191 191 192 193 197 201 205 208 210 212 214 216 215 212 208 207 209 211 210 207 204 201 198 194 190 184 177 176 181 189 194 197 204 219 237 249 256 260 260 256 247 240 237 232 221 211 206 204 205 206 204 203 200 197 195 194 193 192 192 192
212 209 206 202 197 193 189 185 183 182 183 184 184 189 196 202 204 206 209 213 214 208 200 193 193 198 202 203 201 198 195 194 192 187 180 174 176 185 194 200 203 206 214 228 239 245 249 252 250 244 239 235 227 217 211 209 207 206 206 206 204 202 200 198 197 196 195 193 192
208 210 210 207 203 199 189 172 163 165 174 182 183 185 190 197 201 202 203 206 209 206 200 193 188 190 195 199 198 196 193 192 192 187 180 174 177 186 195 201 205 211 218 225 231 235 240 246 249 249 245 239 229 219 214 213 212 211 210 209 207 206 204 201 200 199 198 196 196
203 208 210 211 209 205 197 181 165 159 164 174 181 184 187 192 195 197 199 200 204 208 208 206 200 194 192 194 196 196 191 185 185 184 180 176 176 180 186 194 203 213 221 226 228 230 233 239 244 247 245 238 230 222 218 217 217 216 214 211 211 209 207 204 203 201 199 199 199
199 203 206 208 209 208 205 201 192 180 171 170 176 182 186 187 188 190 193 195 200 205 210 211 210 208 203 198 195 191 183 172 167 170 175 177 176 176 179 188 203 216 222 225 227 228 229 231 235 238 237 234 230 226 224 222 221 219 215 212 211 210 208 205 204 202 201 201 203
193 195 199 202 205 207 208 209 209 206 197 183 178 179 181 181 179 181 185 189 194 200 204 206 209 210 210 207 205 202 197 193 184 181 182 181 181 181 184 194 207 218 225 226 226 226 225 225 226 229 231 232 231 229 227 224 221 217 213 210 208 207 206 205 204 203 205 206 207
189 193 198 203 206 208 210 211 213 214 211 202 190 183 180 177 173 173 177 183 189 193 195 196 197 198 200 204 209 212 214 217 222 222 214 204 201 197 193 196 203 211 219 225 226 225 224 222 222 224 228 230 228 224 222 219 215 212 209 207 204 201 201 204 205 208 212 217 220
189 196 203 206 206 203 201 201 203 205 205 203 197 188 181 177 174 172 174 178 182 184 185 185 183 181 182 189 198 208 217 223 230 232 230 226 224 218 210 206 207 208 211 215 219 221 222 221 219 220 223 225 223 218 213 211 209 207 206 205 202 199 200 206 213 220 229 236 239
176 182 188 189 187 185 184 186 189 193 195 195 193 189 184 180 180 179 179 178 178 180 181 179 173 169 168 173 181 192 204 214 222 225 225 222 224 221 217 218 219 219 214 206 208 213 216 217 215 214 216 220 218 213 208 207 208 210 213 214 211 209 211 218 223 230 238 244 246
161 163 166 169 172 174 178 183 186 189 191 190 189 187 184 183 184 184 182 181 181 184 185 183 178 170 165 165 170 177 185 194 203 208 210 209 210 209 209 211 216 219 213 199 199 204 209 212 211 211 211 211 210 207 206 210 216 227 237 238 232 226 225 226 226 229 234 238 239
156 158 161 164 167 170 175 182 187 190 190 188 185 181 180 181 182 182 180 179 178 178 178 177 175 170 165 163 167 176 186 194 196 196 196 196 196 197 197 197 199 199 195 191 193 197 202 205 207 207 205 203 202 204 209 216 225 236 244 242 236 232 233 233 230 231 234 234 233
165 167 168 168 168 170 174 179 184 185 183 180 178 177 177 177 178 179 179 176 173 171 170 170 168 167 165 168 181 201 211 207 199 192 188 186 186 186 185 185 185 184 184 185 188 193 197 200 201 200 199 199 201 206 213 220 227 234 237 236 234 233 234 235 233 234 237 237 233
181 180 177 174 173 173 174 177 179 179 177 175 176 176 176 176 177 179 178 175 173 171 170 169 168 167 169 179 198 209 209 203 196 190 186 182 180 179 179 180 180 182 184 185 186 189 193 195 195 195 196 199 204 209 215 220 225 227 227 227 227 226 226 226 225 226 230 232 225
189 187 184 182 180 179 179 179 179 178 177 177 177 178 178 178 179 180 180 179 177 175 173 171 171 170 172 180 192 197 197 193 191 189 187 184 182 180 179 178 179 181 183 184 184 185 186 187 188 191 195 200 205 208 213 217 220 220 218 216 213 211 209 207 204 206 211 214 207
189 189 188 186 185 185 185 186 185 183 181 181 180 180 181 181 182 183 184 185 183 180 176 172 172 172 174 177 183 188 189 188 188 188 187 185 184 182 180 178 178 179 179 180 180 179 179 180 183 188 193 197 201 204 208 212 212 210 207 203 198 196 193 191 190 193 197 199 198
188 188 188 188 188 189 189 189 188 186 184 182 180 180 181 182 185 186 186 187 187 184 179 174 172 172 175 177 180 183 185 185 185 184 183 182 180 179 178 177 177 176 176 176 176 176 177 178 182 185 189 191 193 197 201 204 202 199 196 191 188 186 185 186 189 193 197 200 200
187 187 187 188 188 189 189 189 187 185 183 181 179 178 179 181 184 185 185 184 185 184 181 176 173 172 174 176 177 178 180 181 180 178 176 176 175 175 175 175 175 175 176 176 176 176 177 178 181 183 184 185 187 190 192 193 192 190 188 186 184 184 185 190 195 198 200 200 199
183 183 184 185 186 185 185 186 185 184 182 180 178 177 177 178 180 181 181 181 181 180 178 176 174 173 172 173 173 173 174 176 175 173 172 171 170 171 171 172 172 173 174 175 176 176 177 178 179 179 180 182 184 186 186 185 185 185 184 184 183 185 188 194 200 200 197 196 195
174 176 177 178 179 180 180 180 180 179 178 176 175 174 173 173 174 175 177 177 176 174 172 171 171 170 170 170 170 170 170 170 170 170 169 167 167 167 168 168 169 170 172 173 175 176 176 175 175 176 177 181 183 184 183 182 181 181 181 181 182 183 184 189 196 200 201 200 199
162 165 166 167 169 171 172 172 173 172 172 171 171 170 169 168 169 171 172 171 170 169 167 166 165 165 165 166 166 166 166 166 165 165 164 163 163 163 164 166 167 169 170 172 174 175 173 171 171 173 177 180 180 177 175 175 174 172 172 174 179 182 183 185 195 209 216 214 212
154 157 158 159 159 160 162 163 164 164 164 165 166 166 165 164 164 164 164 164 163 163 161 160 160 160 160 161 162 163 162 162 162 162 161 161 160 161 163 165 167 168 169 172 173 174 173 170 170 173 177 178 174 168 164 163 164 165 164 166 174 183 192 198 214 226 225 214 209
149 152 153 154 153 154 155 156 156 156 157 158 160 160 159 157 156 155 155 155 156 156 157 156 156 156 157 157 158 159 160 161 161 161 161 160 161 161 163 164 166 168 169 170 171 173 174 174 174 176 177 176 171 167 165 166 168 169 167 166 171 179 189 205 225 233 228 213 202
143 144 146 147 149 150 150 150 150 150 151 152 152 151 149 148 149 148 148 148 149 150 151 152 152 153 154 155 156 157 158 159 160 161 161 160 160 161 161 162 164 166 168 169 170 171 173 175 176 176 175 173 170 169 172 177 180 181 178 174 173 173 173 182 199 213 218 214 204
138 137 138 143 146 147 148 148 147 146 146 145 145 144 143 144 144 144 144 143 144 145 146 146 147 149 150 152 153 154 155 157 158 159 159 159 158 158 158 160 163 165 166 167 167 168 169 170 171 171 170 167 166 169 176 183 188 189 186 180 178 177 178 180 187 195 201 207 209
137 137 139 142 143 143 144 145 143 142 141 141 141 141 141 142 142 141 141 141 141 142 141 141 142 143 144 145 147 149 152 153 155 156 157 157 157 157 157 159 160 162 163 162 162 163 164 164 163 162 161 162 164 169 175 180 185 187 186 184 186 190 192 192 194 197 202 208 213
137 139 140 139 138 138 138 138 138 138 138 138 138 138 138 139 139 139 139 140 140 140 139 138 139 139 138 138 142 145 148 150 152 154 155 156 156 157 157 158 158 158 157 156 156 157 158 159 158 157 159 165 169 172 174 177 182 186 189 192 199 204 204 203 203 205 210 215 220
133 135 135 133 132 132 133 133 134 134 134 135 135 135 135 135 135 136 138 139 139 139 139 140 139 138 137 140 143 146 149 150 152 154 156 157 157 157 158 157 156 154 153 151 152 155 158 159 160 162 165 169 174 178 180 183 188 191 193 197 205 211 213 213 213 216 220 226 228
124 126 127 127 126 126 127 128 129 130 131 132 132 132 131 131 132 134 138 141 141 142 143 143 142 142 144 147 149 150 150 152 153 156 158 159 160 159 158 156 154 153 152 153 155 157 160 162 166 169 171 171 173 175 179 182 185 187 187 190 199 209 216 221 226 228 230 232 231
117 117 118 118 118 119 120 121 122 124 125 126 126 127 128 130 134 139 143 146 146 146 145 146 146 147 149 150 150 150 149 149 151 155 160 163 163 161 159 156 154 153 153 155 157 159 161 163 168 172 172 169 168 169 172 174 174 174 173 176 188 201 213 218 229 238 242 240 233
112 111 110 109 110 111 113 114 115 115 116 117 120 123 127 132 138 144 148 150 150 148 147 148 149 151 151 151 150 148 146 147 152 158 164 166 166 163 160 157 155 154 154 156 157 159 161 164 168 171 172 171 170 170 172 168 165 163 164 167 181 202 220 228 232 238 246 253 248
112 111 108 106 105 106 107 108 109 110 111 112 116 122 129 135 141 147 152 154 152 150 149 151 153 156 157 156 154 152 150 151 154 159 164 168 167 164 161 158 157 156 155 156 159 161 163 166 170 173 175 176 176 173 169 165 161 159 160 163 178 211 248 253 246 237 237 251 261
115 113 111 109 107 106 106 107 108 110 112 114 118 125 132 139 145 151 155 156 154 150 149 151 155 159 161 161 161 158 156 154 156 158 162 165 166 165 162 160 159 158 157 156 159 163 166 169 174 177 178 178 171 167 164 162 158 156 158 165 177 211 252 266 263 250 238 238 254
117 115 114 112 111 111 111 111 113 114 116 119 122 128 136 143 149 154 158 158 155 151 150 152 156 159 161 162 163 164 163 162 161 161 161 163 164 163 162 161 161 160 158 158 160 163 167 173 179 184 186 180 166 158 157 159 156 155 160 171 186 217 252 271 275 268 252 233 231
118 118 117 116 116 117 118 118 118 119 120 122 126 133 139 144 148 155 158 158 155 155 157 159 161 163 165 166 167 167 167 168 168 166 165 166 165 164 162 161 162 162 161 160 161 164 168 174 183 191 194 181 157 145 146 151 151 152 158 176 193 218 247 268 279 277 262 237 225
123 123 123 123 123 124 125 125 123 123 124 126 131 135 139 142 147 153 157 158 158 160 163 166 167 170 171 171 169 168 168 169 172 172 170 167 166 166 164 162 164 166 167 166 165 166 169 174 184 194 196 174 142 129 132 138 140 143 156 182 197 211 229 252 266 268 259 252 247
130 131 132 131 131 131 131 130 129 129 129 131 133 135 138 142 146 152 156 159 162 165 167 169 171 173 173 172 168 166 167 169 172 174 171 166 168 169 168 166 169 173 175 175 173 171 171 174 184 193 192 165 137 127 126 131 132 141 163 190 202 210 217 228 241 249 257 265 270
139 140 140 140 139 138 137 135 134 134 134 135 135 136 139 144 147 150 154 158 162 166 168 169 170 171 171 169 167 165 166 169 172 173 171 168 169 171 171 171 175 180 182 183 182 178 174 174 182 191 188 161 143 137 138 137 137 153 178 196 202 207 213 218 224 232 249 265 285
146 147 147 146 145 144 142 140 139 139 138 138 138 140 142 146 147 150 153 157 159 162 164 167 169 170 169 168 166 165 166 169 170 172 173 173 174 172 171 172 179 183 185 187 187 184 178 174 180 187 184 166 157 154 156 157 157 172 193 200 201 204 212 221 227 230 237 252 281
Height
739 740 741 743 744 745 746 748 749 751 752 753 755 756 757 757 759 760 762 764 766 767 769 770 771 771 772 773 773 774 776 777 779 781 782 784 785 786 787 788 788 790 791 793 795 796 798 799 802 804 806 807 808 808 808 808 808 807 807 806 806 806 806 806 807 808 809 810 811
738 740 741 743 744 745 746 747 749 751 752 753 755 756 757 758 759 760 762 763 766 768 769 770 771 772 773 774 775 775 775 776 778 779 781 782 784 785 786 786 787 788 791 793 795 796 797 799 801 804 806 807 808 808 808 807 807 807 807 807 806 806 806 806 806 807 809 810 811
737 739 741 742 743 744 746 747 749 751 752 753 754 755 756 757 759 760 761 763 766 768 769 770 771 773 775 776 776 776 776 776 777 778 779 780 781 783 784 785 786 788 791 794 796 796 797 799 801 804 806 807 807 807 807 807 807 807 807 806 806 806 805 805 806 807 808 809 810
737 739 740 741 743 744 745 746 748 749 751 752 753 754 755 756 758 759 761 763 765 766 768 770 771 773 775 777 777 777 777 776 776 776 776 778 780 781 783 785 786 788 791 794 796 797 797 799 801 804 806 806 806 806 806 806 806 806 806 806 805 805 804 804 805 806 807 808 809
736 737 739 741 742 744 745 746 747 748 749 750 751 753 754 755 756 758 760 762 764 765 767 769 771 773 776 778 778 778 777 775 774 774 774 776 778 781 783 785 786 787 790 792 795 796 797 799 801 804 805 805 805 805 805 805 806 806 805 805 805 804 804 804 805 806 807 807 808
735 737 738 740 742 744 745 745 745 746 747 749 750 751 753 754 755 757 758 761 763 765 766 768 771 773 776 777 778 777 775 773 773 773 773 775 777 781 783 785 786 786 788 791 793 795 797 799 802 803 804 805 804 804 804 805 805 805 805 805 804 804 804 804 805 806 806 807 807
735 736 738 740 741 743 744 744 744 745 747 748 749 750 752 753 754 756 757 759 761 764 766 768 771 773 775 776 776 775 773 772 772 772 773 774 777 780 782 783 785 786 788 791 793 795 796 799 801 803 804 805 805 805 804 804 804 804 804 804 804 804 804 804 805 805 806 806 806
735 736 738 739 741 742 742 743 744 745 747 748 749 750 751 752 754 755 757 759 761 763 766 768 770 771 773 774 774 773 771 771 771 772 774 775 776 778 780 781 783 785 787 790 792 794 796 799 801 802 804 805 805 805 804 804 804 804 803 803 803 803 803 804 804 805 805 805 806
734 735 736 738 739 740 741 741 743 744 746 748 750 751 752 753 754 755 757 759 761 763 765 767 768 770 771 771 771 771 771 771 771 773 774 776 777 778 779 780 782 784 787 790 792 795 796 798 799 801 803 804 805 804 804 804 804 803 803 802 802 802 803 803 804 804 805 805 805
732 733 734 735 736 737 738 739 741 743 746 748 751 752 753 754 754 755 757 759 761 763 764 766 766 767 767 768 768 769 769 770 771 773 775 776 777 778 779 779 781 783 786 789 792 795 796 797 798 800 801 803 804 804 804 804 803 803 803 802 802 802 802 803 803 804 804 805 805
731 731 732 733 734 736 737 739 742 745 748 750 752 754 754 754 755 756 756 758 760 761 762 763 763 763 763 764 766 767 768 769 771 772 774 776 777 778 778 779 780 781 783 786 790 793 795 796 796 798 800 801 803 803 803 803 803 803 803 803 802 802 802 802 803 803 804 805 805
731 731 732 733 735 737 739 742 745 748 750 752 753 754 754 754 754 755 756 757 758 758 759 760 759 759 760 761 764 766 767 769 770 771 773 774 775 776 777 778 779 780 781 782 786 791 793 795 795 796 798 801 802 803 803 803 803 803 803 803 802 801 801 802 802 803 804 804 805
732 733 734 736 737 739 741 744 746 748 750 751 752 752 753 753 754 755 756 756 756 757 757 757 757 757 758 759 762 765 767 769 770 771 771 772 773 774 775 776 777 778 779 780 783 787 791 793 794 795 797 799 801 802 802 802 803 803 803 803 802 801 801 801 802 802 803 804 804
733 735 736 737 739 741 742 744 746 748 749 750 751 751 752 753 754 754 755 756 756 756 757 757 756 756 755 756 759 763 766 768 770 771 772 772 773 773 773 774 774 775 776 778 781 784 788 791 792 794 796 798 800 801 801 801 802 802 803 802 801 800 800 800 801 802 803 804 804
735 736 737 739 740 741 743 744 746 747 748 749 750 750 751 752 753 754 754 755 755 756 756 756 755 754 752 752 756 761 766 769 770 771 772 772 773 773 773 773 773 774 775 777 780 783 786 789 791 793 795 797 798 799 799 800 801 801 802 801 800 800 800 800 801 801 802 803 804
736 737 738 740 741 741 743 744 745 746 746 747 748 749 750 751 752 752 753 754 754 754 754 753 752 751 750 751 756 761 766 769 770 771 772 772 772 773 773 773 773 774 775 777 779 782 785 787 789 791 793 795 796 797 798 798 799 800 801 800 800 799 799 800 800 801 801 802 803
738 738 739 740 741 741 742 743 744 745 746 746 747 748 749 750 751 752 752 752 753 752 752 751 749 749 749 752 757 762 766 768 769 770 771 771 772 772 772 773 774 775 776 777 779 781 784 786 788 791 792 793 794 795 796 797 798 799 800 799 799 799 799 799 800 800 801 801 802
738 739 740 740 741 741 742 743 744 745 746 746 747 748 749 750 750 751 751 751 751 751 751 750 750 750 751 754 758 762 765 767 768 769 770 771 771 772 772 773 774 776 777 778 780 781 783 786 788 790 791 792 793 793 795 796 798 799 799 799 798 798 798 799 799 799 800 801 801
738 739 739 740 740 741 741 742 743 744 745 746 747 748 749 749 750 750 751 751 751 751 751 751 751 752 754 756 759 762 764 766 767 768 770 770 771 772 773 774 775 776 777 779 780 782 784 786 787 789 790 791 791 792 794 796 797 798 798 798 797 797 798 798 798 798 799 800 800
737 738 739 739 739 740 741 741 742 743 745 746 746 747 748 749 750 750 751 751 751 752 752 752 753 754 756 757 759 762 764 765 766 768 769 770 771 772 773 774 775 776 778 779 781 782 784 786 787 788 789 790 791 792 793 795 796 797 797 797 796 797 797 797 797 798 798 799 799
737 737 738 738 739 739 740 741 741 743 744 745 746 747 748 749 750 750 751 751 752 753 753 753 754 755 756 758 760 761 763 765 766 767 769 770 771 771 772 774 775 776 778 779 781 782 784 785 786 787 788 789 791 792 793 795 796 796 796 796 796 796 796 796 797 797 797 798 798
737 737 737 738 738 739 739 740 741 742 743 745 746 747 748 749 750 751 751 752 753 753 754 755 755 756 757 758 760 761 763 765 766 767 768 769 770 771 772 774 775 776 777 779 780 782 783 785 786 787 788 790 791 793 794 794 795 795 795 795 795 795 796 796 796 796 797 797 797
736 736 737 737 738 738 739 740 741 742 743 745 746 747 748 749 750 751 752 753 753 754 755 756 756 757 758 759 760 761 763 765 766 767 768 769 770 771 773 774 775 776 777 779 780 781 783 784 786 787 789 791 792 793 794 794 794 794 794 794 794 795 795 795 796 796 796 796 797
736 736 736 737 738 739 739 740 741 742 743 745 746 747 748 749 750 751 752 753 754 755 756 756 757 758 759 760 761 763 764 765 766 767 768 769 770 771 773 774 776 777 778 779 780 781 782 784 786 788 789 791 792 792 793 793 793 794 794 794 794 794 794 794 795 795 796 796 797
736 736 737 738 739 740 740 741 742 743 744 745 746 748 749 750 751 752 753 754 755 756 756 757 758 759 760 761 762 764 765 765 766 767 768 770 771 772 773 775 776 777 778 779 780 781 782 784 786 787 789 790 791 791 791 792 792 792 793 793 793 793 794 794 795 795 796 796 797
736 737 738 739 740 741 741 742 743 744 745 746 747 748 749 751 751 753 754 755 756 756 757 758 759 760 760 761 763 764 765 766 767 768 769 770 771 772 774 775 776 777 778 779 780 781 783 784 786 787 788 788 789 789 790 791 791 791 792 792 792 793 794 794 795 795 796 796 797
737 738 739 740 741 742 742 743 744 745 746 746 747 749 750 751 752 753 754 755 756 757 758 759 760 761 761 762 764 765 766 767 768 769 770 771 771 773 774 775 776 777 778 779 780 781 783 784 785 786 787 787 787 788 789 790 791 791 791 792 792 793 794 794 795 796 796 796 796
738 739 740 741 742 743 743 744 745 746 746 747 748 749 750 751 753 754 755 756 757 758 759 760 761 761 762 764 765 766 767 768 769 770 771 772 772 773 774 775 776 777 778 779 780 781 782 784 785 785 786 786 786 787 788 789 790 790 791 791 792 792 793 794 794 795 795 795 795
740 741 742 742 743 744 745 746 746 747 748 749 749 750 751 752 753 755 756 756 757 758 759 760 761 762 763 765 766 767 768 769 770 771 772 772 773 774 775 776 776 777 778 779 780 781 782 782 783 784 784 785 786 787 788 789 789 790 791 791 791 792 793 793 793 794 794 794 794
742 743 743 744 745 746 746 747 747 748 749 750 750 751 752 753 754 756 757 757 758 759 760 761 762 763 764 765 766 768 769 770 771 771 772 773 774 774 775 776 777 777 778 779 780 780 781 781 782 783 784 785 786 787 788 788 789 790 790 791 791 792 792 792 793 793 793 793 793
744 745 745 746 746 747 747 748 749 749 750 751 751 752 753 754 755 756 758 758 759 760 761 761 762 763 765 766 767 768 769 770 771 772 773 773 774 775 776 776 777 777 778 779 779 780 780 781 781 782 784 785 786 787 787 788 789 789 790 791 791 791 791 792 792 792 792 792 792
746 746 746 747 747 748 749 749 750 751 751 751 752 753 754 755 756 757 758 759 760 761 761 762 763 764 765 766 768 769 770 771 772 772 773 774 774 775 776 776 777 777 778 779 779 779 780 780 781 782 783 784 785 786 787 787 788 789 789 790 790 791 791 791 791 791 791 792 792
746 747 748 748 749 750 750 751 751 752 752 753 753 754 755 756 756 758 758 759 760 761 762 762 763 764 766 767 768 770 771 771 772 773 773 774 774 775 776 776 777 777 778 778 779 779 780 780 781 782 783 784 785 786 786 787 787 788 789 789 790 790 790 791 791 791 791 791 791
747 748 749 749 750 751 751 752 752 753 753 754 755 755 756 756 757 758 759 760 761 761 762 763 764 765 766 768 769 770 771 772 773 773 773 774 774 775 775 776 776 777 778 778 778 779 779 780 781 782 783 784 784 785 786 786 787 787 788 789 789 789 790 790 790 791 791 791 791
748 749 750 750 751 751 752 753 753 754 755 755 756 756 757 757 758 759 759 760 761 762 763 764 765 766 767 768 770 771 771 772 773 773 774 774 774 775 775 776 776 776 777 778 778 778 779 780 780 781 782 783 784 785 785 786 786 787 787 788 788 789 789 789 790 790 790 791 791
750 750 750 751 751 752 753 754 754 755 756 756 756 757 757 758 758 759 760 761 761 762 763 765 766 767 768 769 770 771 771 772 773 773 774 774 774 775 775 775 776 776 776 777 777 778 778 779 780 781 782 783 783 784 784 785 786 786 787 787 788 788 789 789 789 789 790 790 791
751 751 752 752 753 753 754 754 755 756 756 756 757 757 757 758 758 759 760 761 762 763 764 765 766 767 768 769 770 771 771 772 772 773 773 773 774 774 774 775 775 776 776 776 777 778 778 779 780 781 781 782 783 783 784 784 785 786 786 787 787 788 788 788 788 789 789 790 790
752 753 753 754 754 755 755 755 756 756 756 757 757 757 757 758 759 760 760 761 762 763 764 765 766 767 768 768 769 770 771 771 772 772 772 773 773 773 773 774 774 775 776 776 777 777 778 779 780 780 781 782 782 783 783 784 784 785 786 786 787 787 788 788 788 788 789 789 789
754 754 755 755 755 756 756 756 756 756 757 757 757 757 758 758 759 760 761 762 763 764 765 766 766 767 768 768 769 770 770 771 771 771 771 772 772 772 773 773 774 775 775 776 776 777 778 779 779 780 781 781 782 782 783 783 784 785 786 786 787 787 787 788 788 788 788 788 789
755 755 756 756 756 756 756 756 757 757 757 757 758 758 758 759 759 760 761 762 763 764 765 766 766 767 767 768 768 769 770 770 770 771 771 771 772 772 773 773 774 774 775 776 776 777 778 778 779 780 780 781 781 782 782 783 784 784 785 786 786 787 787 787 788 788 788 788 788
755 755 756 756 756 756 756 756 757 757 757 758 758 758 759 759 760 761 761 762 763 764 765 765 766 767 767 768 768 769 769 770 770 770 771 771 771 772 772 773 774 774 775 775 776 776 777 778 779 779 779 780 781 781 782 783 784 784 785 786 786 786 787 787 787 788 788 788 788